tDAR Logo tDAR digital antiquity

California Department of Forestry 1948 Aerial Photos: Flightline 20 (Humboldt and Del Norte Counties)

Creator(s): California Department of Forestry

Year: 1948

» Downloads & Basic Metadata

Summary

A series of aerial photos taken from 1947 to 1948 by the California Department of Forestry in Humboldt and Del Norte Counties.


Cite this Record

California Department of Forestry 1948 Aerial Photos: Flightline 20 (Humboldt and Del Norte Counties). California Department of Forestry. 1948. Humboldt State University, Cultural Resources Facility ( tDAR id: 370120) ; doi:10.6067/XCV8B56HDV





Keywords


Temporal Coverage

Calendar Date: 1947 to 1948


Spatial Coverage

min long: -124.662; min lat: 39.935 ; max long: -123.311; max lat: 42.115 ;

File Information

  Name Size Creation Date Date Uploaded Access
a48-hum-cdf2-20-054.jpg 5.21mb Oct 31, 2011 9:37:23 AM Public
a48-hum-cdf2-20-055.jpg 4.70mb Oct 31, 2011 9:37:31 AM Public
a48-hum-cdf2-20-056.jpg 4.32mb Oct 31, 2011 9:37:36 AM Public
a48-hum-cdf2-20-057.jpg 4.50mb Oct 31, 2011 9:38:08 AM Public
a48-hum-cdf2-20-058.jpg 5.04mb Oct 31, 2011 9:38:24 AM Public
a48-hum-cdf2-20-059.jpg 5.17mb Oct 31, 2011 9:38:35 AM Public
a48-hum-cdf2-20-060.jpg 5.12mb Oct 31, 2011 9:38:42 AM Public
a48-hum-cdf2-20-061.jpg 5.18mb Oct 31, 2011 9:38:49 AM Public
a48-hum-cdf2-20-062.jpg 5.16mb Oct 31, 2011 9:38:57 AM Public
a48-hum-cdf2-20-063.jpg 5.06mb Oct 31, 2011 9:39:06 AM Public
a48-hum-cdf2-20-064.jpg 5.25mb Oct 31, 2011 9:39:25 AM Public
a48-hum-cdf2-20-065.jpg 5.33mb Oct 31, 2011 9:39:34 AM Public
a48-hum-cdf2-20-066.jpg 5.20mb Oct 31, 2011 9:39:44 AM Public
a48-hum-cdf2-20-067.jpg 5.17mb Oct 31, 2011 9:39:54 AM Public
a48-hum-cdf2-20-068.jpg 5.19mb Oct 31, 2011 9:40:01 AM Public
a48-hum-cdf2-20-069.jpg 5.26mb Oct 31, 2011 9:40:41 AM Public
a48-hum-cdf2-20-070.jpg 5.27mb Oct 31, 2011 9:40:53 AM Public
a48-hum-cdf2-20-071.jpg 5.34mb Oct 31, 2011 9:41:01 AM Public
a48-hum-cdf2-20-072.jpg 5.38mb Oct 31, 2011 9:41:06 AM Public
a48-hum-cdf2-20-073.jpg 5.22mb Oct 31, 2011 9:41:13 AM Public
a48-hum-cdf2-20-074.jpg 4.94mb Oct 31, 2011 9:41:28 AM Public
a48-hum-cdf2-20-075.jpg 4.88mb Oct 31, 2011 9:41:33 AM Public
a48-hum-cdf2-20-076.jpg 5.13mb Oct 31, 2011 9:41:39 AM Public
a48-hum-cdf2-20-077.jpg 5.17mb Oct 31, 2011 9:42:18 AM Public
a48-hum-cdf2-20-078.jpg 5.11mb Oct 31, 2011 9:42:32 AM Public
a48-hum-cdf2-20-079.jpg 5.02mb Oct 31, 2011 9:46:28 AM Public
a48-hum-cdf2-20-080.jpg 5.19mb Oct 31, 2011 9:46:34 AM Public
a48-hum-cdf2-20-081.jpg 5.13mb Oct 31, 2011 9:46:42 AM Public
a48-hum-cdf2-20-082.jpg 5.15mb Oct 31, 2011 9:47:56 AM Public
a48-hum-cdf2-20-083.jpg 5.13mb Oct 31, 2011 9:48:41 AM Public
a48-hum-cdf2-20-084.jpg 5.05mb Oct 31, 2011 9:48:50 AM Public
a48-hum-cdf2-20-085.jpg 5.04mb Oct 31, 2011 9:48:58 AM Public
a48-hum-cdf2-20-086.jpg 5.15mb Oct 31, 2011 9:49:08 AM Public
a48-hum-cdf2-20-087.jpg 4.86mb Oct 31, 2011 9:49:17 AM Public
a48-hum-cdf2-20-088.jpg 5.07mb Oct 31, 2011 9:49:23 AM Public
a48-hum-cdf2-20-089.jpg 5.04mb Oct 31, 2011 9:50:44 AM Public
a48-hum-cdf2-20-090.jpg 4.97mb Oct 31, 2011 9:50:52 AM Public
a48-hum-cdf2-20-096.jpg 5.11mb Oct 31, 2011 9:51:00 AM Public
a48-hum-cdf2-20-097.jpg 5.09mb Oct 31, 2011 9:51:09 AM Public
a48-hum-cdf2-20-098.jpg 5.19mb Oct 31, 2011 9:51:51 AM Public
a48-hum-cdf2-20-099.jpg 5.10mb Oct 31, 2011 9:54:21 AM Public
a48-hum-cdf2-20-100.jpg 4.97mb Oct 31, 2011 9:55:07 AM Public
a48-hum-cdf2-20-101.jpg 4.98mb Oct 31, 2011 9:55:17 AM Public
a48-hum-cdf2-20-102.jpg 5.07mb Oct 31, 2011 9:55:23 AM Public
a48-hum-cdf2-20-103.jpg 4.80mb Oct 31, 2011 9:55:30 AM Public
a48-hum-cdf2-20-104.jpg 4.76mb Oct 31, 2011 9:55:59 AM Public
a48-hum-cdf2-20-106.jpg 4.75mb Oct 31, 2011 9:56:07 AM Public
a48-hum-cdf2-20-107.jpg 4.99mb Oct 31, 2011 9:56:14 AM Public
a48-hum-cdf2-20-108.jpg 4.72mb Oct 31, 2011 9:56:20 AM Public
a48-hum-cdf2-20-109.jpg 4.55mb Oct 31, 2011 9:56:27 AM Public
a48-hum-cdf2-20-110.jpg 4.72mb Oct 31, 2011 9:57:14 AM Public
a48-hum-cdf2-20-111.jpg 4.47mb Oct 31, 2011 9:57:55 AM Public
a48-hum-cdf2-20-112.jpg 4.64mb Oct 31, 2011 9:58:29 AM Public
a48-hum-cdf2-20-113.jpg 4.89mb Oct 31, 2011 9:59:10 AM Public
a48-hum-cdf2-20-114.jpg 4.94mb Oct 31, 2011 9:59:42 AM Public
a48-hum-cdf2-20-115.jpg 5.11mb Oct 31, 2011 10:00:03 AM Public
a48-hum-cdf2-20-116.jpg 5.07mb Oct 31, 2011 10:00:11 AM Public
a48-hum-cdf2-20-117.jpg 5.20mb Oct 31, 2011 10:00:17 AM Public
a48-hum-cdf2-20-118.jpg 5.28mb Oct 31, 2011 10:00:23 AM Public
a48-hum-cdf2-20-119.jpg 5.17mb Oct 31, 2011 10:00:35 AM Public
a48-hum-cdf2-20-120.jpg 5.35mb Oct 31, 2011 10:00:43 AM Public
a48-hum-cdf2-20-121.jpg 4.86mb Oct 31, 2011 10:00:49 AM Public
a48-hum-cdf2-20-122.jpg 5.13mb Oct 31, 2011 10:00:55 AM Public
a48-hum-cdf2-20-123.jpg 5.06mb Oct 31, 2011 10:01:00 AM Public
a48-hum-cdf2-20-124.jpg 5.08mb Oct 31, 2011 10:01:30 AM Public
a48-hum-cdf2-20-125.jpg 4.92mb Oct 31, 2011 10:01:38 AM Public
a48-hum-cdf2-20-126.jpg 4.61mb Oct 31, 2011 10:01:46 AM Public
a48-hum-cdf2-20-127.jpg 4.53mb Oct 31, 2011 10:01:51 AM Public
a48-hum-cdf2-20-128.jpg 4.45mb Oct 31, 2011 10:01:57 AM Public
a48-hum-cdf2-20-129.jpg 4.43mb Oct 31, 2011 10:02:08 AM Public
a48-hum-cdf2-20-130.jpg 4.45mb Oct 31, 2011 10:02:15 AM Public
a48-hum-cdf2-20-131.jpg 4.41mb Oct 31, 2011 10:02:20 AM Public
a48-hum-cdf2-20-132.jpg 4.59mb Oct 31, 2011 10:02:25 AM Public
a48-hum-cdf2-20-170.jpg 4.37mb Oct 31, 2011 10:02:31 AM Public
a48-hum-cdf2-20-171.jpg 4.47mb Oct 31, 2011 10:03:06 AM Public
a48-hum-cdf2-20-172.jpg 4.53mb Oct 31, 2011 10:03:12 AM Public
a48-hum-cdf2-20-174.jpg 3.91mb Oct 31, 2011 10:03:20 AM Public
a48-hum-cdf2-20-175.jpg 4.14mb Oct 31, 2011 10:03:37 AM Public
a48-hum-cdf2-20-177.jpg 4.68mb Oct 31, 2011 10:03:54 AM Public
a48-hum-cdf2-20-178.jpg 4.62mb Oct 31, 2011 10:04:04 AM Public
a48-hum-cdf2-20-179.jpg 4.90mb Oct 31, 2011 10:04:13 AM Public
a48-hum-cdf2-20-180.jpg 4.86mb Oct 31, 2011 10:04:26 AM Public
a48-hum-cdf2-20-181.jpg 4.82mb Oct 31, 2011 10:04:31 AM Public
a48-hum-cdf2-20-182.jpg 4.89mb Oct 31, 2011 10:06:25 AM Public
a48-hum-cdf2-20-183.jpg 5.00mb Oct 31, 2011 10:06:33 AM Public
a48-hum-cdf2-20-184.jpg 4.80mb Oct 31, 2011 10:06:45 AM Public
a48-hum-cdf2-20-185.jpg 5.10mb Oct 31, 2011 10:06:59 AM Public
a48-hum-cdf2-20-186.jpg 4.79mb Oct 31, 2011 10:07:07 AM Public
a48-hum-cdf2-20-187.jpg 5.02mb Oct 31, 2011 10:07:18 AM Public
a48-hum-cdf2-20-188.jpg 5.02mb Oct 31, 2011 10:07:28 AM Public
a48-hum-cdf2-20-189.jpg 4.68mb Oct 31, 2011 10:07:35 AM Public
a48-hum-cdf2-20-190.jpg 4.96mb Oct 31, 2011 10:08:44 AM Public
a48-hum-cdf2-20-191.jpg 4.64mb Oct 31, 2011 10:08:51 AM Public
a48-hum-cdf2-20-192.jpg 4.83mb Oct 31, 2011 10:09:01 AM Public
a48-hum-cdf2-20-193.jpg 4.86mb Oct 31, 2011 10:09:06 AM Public
a48-hum-cdf2-20-194.jpg 4.78mb Oct 31, 2011 10:09:12 AM Public
a48-hum-cdf2-20-195.jpg 4.90mb Oct 31, 2011 10:09:42 AM Public
a48-hum-cdf2-20-196.jpg 4.77mb Oct 31, 2011 10:09:47 AM Public
a48-hum-cdf2-20-197.jpg 4.86mb Oct 31, 2011 10:09:53 AM Public
a48-hum-cdf2-20-198.jpg 4.89mb Oct 31, 2011 10:10:33 AM Public
a48-hum-cdf2-20-199.jpg 4.84mb Oct 31, 2011 10:10:39 AM Public
a48-hum-cdf2-20-200.jpg 4.80mb Oct 31, 2011 10:10:44 AM Public
a48-hum-cdf2-20-201.jpg 4.93mb Oct 31, 2011 10:10:49 AM Public
a48-hum-cdf2-20-202.jpg 4.79mb Oct 31, 2011 10:10:57 AM Public
a48-hum-cdf2-20-203.jpg 4.70mb Oct 31, 2011 10:11:03 AM Public
a48-hum-cdf2-20-204.jpg 4.50mb Oct 31, 2011 10:11:13 AM Public
a48-hum-cdf2-20-205.jpg 4.34mb Oct 31, 2011 10:11:19 AM Public
a48-hum-cdf2-20-206.jpg 4.34mb Oct 31, 2011 10:11:27 AM Public
flightline-20dn.jpg 755.42kb Nov 3, 2011 12:25:46 PM Public
Arizona State University The Andrew W. Mellon Foundation National Science Foundation National Endowment for the Humanities Society for American Archaeology Archaeological Institute of America